Regional Weather Roundup
Issued by NWS

Home | Current Version | Previous Version | Graphics & Text | Print | Product List | Glossary On
Versions: 1 2 3 4 5 6 7 8 9 10 11 12 13 14 15 16 17 18 19 20 21 22 23 24 25 26 27 28 29 30 31 32 33 34 35 36 37 38 39 40 41 42 43 44 45 46 47 48 49 50
895
ASUS44 KJAN 301703
RWRMS

MISSISSIPPI HOURLY WEATHER ROUNDUP
NATIONAL WEATHER SERVICE JACKSON MS
1200 PM CDT TUE SEP 30 2014

NOTE: "FAIR: INDICATES FEW OR NO CLOUDS BELOW 12,000 FEET WITH NO
SIGNIFICANT WEATHER AND/OR OBSTRUCTIONS TO VISIBILITY.

MSZ001>002-007>008-010>013-018>021-025>028-034>036-301800-
NORTHWEST MISSISSIPPI

CITY           SKY/WX    TMP DP  RH WIND       PRES   REMARKS
CLARKSDALE     FAIR      84  61  45 CALM      29.94F
CLEVELAND      FAIR      87  61  42 E7        29.92F
GREENWOOD      MOSUNNY   83  66  56 VRB5      29.93F
GREENVILLE     MOSUNNY   86  60  41 W3        29.92F
GRENADA        FAIR      82  66  57 N3        29.94F
OLIVE BRANCH   MOSUNNY   82  63  51 S6        29.95F
OXFORD         FAIR      81  64  57 SE6       29.97S
TUNICA         SUNNY     84  59  42 SE3       29.94F
$$

MSZ003>006-009-014>017-022>024-029>033-037>039-301800-
NORTHEAST MISSISSIPPI

CITY           SKY/WX    TMP DP  RH WIND       PRES   REMARKS
COLUMBUS AFB   SUNNY     81  66  59 CALM      29.95F
CORINTH        FAIR      82  61  47 S6        29.95S
GOLDN TRIANGLE PTSUNNY   81  64  57 E5        29.95F
STARKVILLE     FAIR      82  66  57 CALM      29.95F
TUPELO         SUNNY     83  66  56 VRB5      29.95F
$$

MSZ040-058-301800-
CENTRAL MISSISSIPPI

CITY           SKY/WX    TMP DP  RH WIND       PRES   REMARKS
JACKSON INTL   PTSUNNY   83  66  56 CALM      29.93F
JACKSON HAWKNS PTSUNNY   84  66  54 SE5       29.93F
MERIDIAN KEY   SUNNY     81  64  56 NE7       29.95F
MERIDIAN NAS   MOSUNNY   80  64  58 E7        29.95F
RAYMOND        FAIR      84  81  89 CALM      29.93F HX  98
VICKSBURG      MOSUNNY   88  67  49 E7        29.92F HX  91
$$

MSZ059>079-301800-
SOUTH MISSISSIPPI

CITY           SKY/WX    TMP DP  RH WIND       PRES   REMARKS
BROOKHAVEN     FAIR      82  68  61 CALM      29.95S
COLUMBIA       FAIR      84  70  61 SE7       29.92S
HATTIESBURG    PTSUNNY   82  70  66 SE5       29.94F
MCCOMB         MOSUNNY   85  67  54 E8        29.93S
NATCHEZ        SUNNY     82  72  69 SE6       29.93F
PINE BELT      MOSUNNY   81  68  65 E6        29.95F
$$

MSZ080>082-301800-
COASTAL MISSISSIPPI

CITY           SKY/WX    TMP DP  RH WIND       PRES   REMARKS
BAY ST LOUIS   PTSUNNY   84  68  58 E5        29.91S
BILOXI         MOSUNNY   82  73  73 SE8       29.92S
PASCAGOULA     CLOUDY    78  70  76 NE6       29.93S
GULFPORT       CLOUDY    82  72  71 SE10      29.91S
$$



USA.gov is the U.S. government's official web portal to all federal, state and local government web resources and services.